Weather in Koshlakovo

Russia / Belgorod Oblast     50°31′40″N   36°52′07″E
temp.,
°C
wind,
m/s
gust,
m/s
humid.,
%
clouds,
%
prec.,
mm/h
press.,
hPa
HPBL,
m
18 april, sun
sun1800:00+6sw3684100 0.0 1019421
03:00+6sw368386 0.3 1019607
06:00+6ssw2687100 0.2 1018236
09:00+8sw3469100 0.5 1018509
12:00+10sw5759100 0.3 10181340
15:00+11wsw5655100 0.4 10171426
18:00+7nw3484100 1.0 1018376
21:00+7se1289100 3.9 1018172
19 april, mon
mon1900:00+7wnw129084 0.9 1018226
03:00+5nnw239348 0.9 101892
06:00+5n128820 0.0 101768
09:00+9n11675 0.0 1018725
12:00+12nnw125511 0.0 10171234
15:00+13n2247100 0.0 10151731
18:00+12n4458100 0.0 1016576
21:00+9nne367478 0.0 1016171
20 april, tue
tue2000:00+7ne378112 0.0 1015158
03:00+7ne387974 0.0 1013197
06:00+7ene3885100 0.0 1011188
09:00+10e61284100 0.1 1010616
12:00+11ene81285100 0.9 1006888
15:00+9ene71495100 13.3 1001905
18:00+10se61196100 10.9 996556
21:00+10s61390100 11.7 997604
21 april, wed
wed2100:00+9s6139182 0.2 997642
03:00+8sw6994100 1.4 999825
06:00+5w71195100 0.8 1004893
09:00+7wsw71091100 1.0 1008934
12:00+7wsw61085100 0.1 1012853
15:00+8wsw6871100 0.3 10141212
18:00+8sw5872100 0.1 1016704
21:00+7sw4878100 0.1 1018275
22 april, thu
thu2200:00+6sw3779100 0.0 1020204
03:00+6sw367986 0.0 1021167
06:00+4s358436 0.0 102289
09:00+9s4565100 0.0 1023411
12:00+13s455581 0.0 10241044
15:00+15s555167 0.0 10231756
18:00+14s356018 0.1 1023474
21:00+10sse337629 0.3 102428